EW6851 Weather Reports


time (UTC)temp
F
wind
direction
speed
knots
gust
knots
rain 1hr
in
rain 24hr
in
rain mn
in
humidity
%
barometer
mb
20260906093144 88 304 2.6 6.1 0.00 0.00 0.00 56 1019.7
20260906092644 88 338 0.0 5.2 0.00 0.00 0.00 57 1019.7
20260906092144 88 310 4.3 7.8 0.00 0.00 0.00 58 1019.8
20260906091644 88 36 1.7 4.3 0.00 0.00 0.00 58 1019.8
20260906091150 88 300 5.2 6.1 0.00 0.00 0.00 59 1019.9
20260906090644 88 355 2.6 5.2 0.00 0.00 0.00 60 1019.9
20260906090147 88 285 3.5 5.2 0.00 0.00 0.00 61 1019.8
20260906085647 87 279 2.6 4.3 0.00 0.00 0.00 62 1019.8
20260906085144 87 340 0.9 5.2 0.00 0.00 0.00 62 1019.8
20260906084644 87 231 0.0 3.5 0.00 0.00 0.00 63 1019.7
20260906084144 87 277 1.7 5.2 0.00 0.00 0.00 63 1019.8
20260906083644 87 257 3.5 4.3 0.00 0.00 0.00 63 1019.8
20260906083144 88 348 1.7 6.1 0.00 0.00 0.00 63 1019.8
20260906082650 88 283 3.5 4.3 0.00 0.00 0.00 62 1019.8
20260906082144 88 238 0.0 1.7 0.00 0.00 0.00 59 1019.8
20260906081644 87 320 1.7 2.6 0.00 0.00 0.00 59 1019.8
20260906081148 87 320 1.7 2.6 0.00 0.00 0.00 61 1019.8
20260906080647 86 320 1.7 3.5 0.00 0.00 0.00 62 1019.7
20260906080144 86 300 0.0 2.6 0.00 0.00 0.00 64 1019.7
20260906075647 85 90 2.6 4.3 0.00 0.00 0.00 63 1019.7
20260906075147 85 44 0.0 2.6 0.00 0.00 0.00 63 1019.7
20260906074650 85 19 2.6 3.5 0.00 0.00 0.00 64 1019.6
20260906074144 85 5 0.9 4.3 0.00 0.00 0.00 65 1019.6
20260906073644 85 12 4.3 4.3 0.00 0.00 0.00 66 1019.7
20260906073145 85 26 2.6 2.6 0.00 0.00 0.00 67 1019.6
20260906072650 85 303 0.0 3.5 0.00 0.00 0.00 68 1019.7
20260906072144 84 302 2.6 2.6 0.00 0.00 0.00 70 1019.6
20260906071644 84 348 0.0 2.6 0.00 0.00 0.00 70 1019.6
20260906071144 84 295 0.0 3.5 0.00 0.00 0.00 70 1019.6
20260906070644 83 240 0.0 2.6 0.00 0.00 0.00 68 1019.5
20260906070147 83 247 1.7 3.5 0.00 0.00 0.00 67 1019.5
20260906065644 83 178 0.0 0.0 0.00 0.00 0.00 68 1019.5
20260906065144 82 178 0.0 2.6 0.00 0.00 0.00 67 1019.4
20260906064644 82 182 0.9 3.5 0.00 0.00 0.00 66 1019.4
20260906064153 82 183 2.6 3.5 0.00 0.00 0.00 64 1019.3
20260906063644 82 182 0.9 2.6 0.00 0.00 0.00 63 1019.4
20260906063144 81 171 0.0 3.5 0.00 0.00 0.00 63 1019.3
20260906062650 81 206 0.9 3.5 0.00 0.00 0.00 62 1019.3
20260906062144 80 148 0.9 3.5 0.00 0.00 0.00 62 1019.3
20260906061650 80 132 2.6 3.5 0.00 0.00 0.00 62 1019.4
20260906061150 80 153 0.9 2.6 0.00 0.00 0.00 62 1019.3
20260906060644 79 150 0.9 4.3 0.00 0.00 0.00 63 1019.4
20260906060144 79 117 1.7 4.3 0.00 0.00 0.00 63 1019.4
20260906055644 78 141 1.7 4.3 0.00 0.00 0.00 63 1019.3
20260906055147 78 143 1.7 4.3 0.00 0.00 0.00 63 1019.2
20260906054644 77 236 0.9 6.1 0.00 0.00 0.00 64 1019.2
20260906054147 77 153 2.6 4.3 0.00 0.00 0.00 64 1019.2
20260906053651 76 168 1.7 5.2 0.00 0.00 0.00 65 1019.1
20260906053144 76 138 0.9 6.1 0.00 0.00 0.00 64 1019.1
20260906052644 76 215 0.9 6.1 0.00 0.00 0.00 64 1019.1
20260906052147 76 145 3.5 6.1 0.00 0.00 0.00 64 1019.0
20260906051653 75 175 3.5 6.1 0.00 0.00 0.00 63 1019.1
20260906051144 75 167 0.9 4.3 0.00 0.00 0.00 63 1019.1
20260906050648 75 192 2.6 5.2 0.00 0.00 0.00 63 1019.1
20260906050147 75 163 2.6 6.1 0.00 0.00 0.00 62 1019.1
20260906045644 75 140 1.7 5.2 0.00 0.00 0.00 62 1019.1
20260906045150 75 149 2.6 5.2 0.00 0.00 0.00 61 1019.1
20260906044647 75 193 1.7 4.3 0.00 0.00 0.00 61 1019.0
20260906044148 75 173 1.7 6.1 0.00 0.00 0.00 60 1018.9
20260906043647 75 166 1.7 6.1 0.00 0.00 0.00 60 1018.9
20260906043147 75 144 1.7 7.0 0.00 0.00 0.00 60 1018.9
20260906042644 75 144 6.1 7.0 0.00 0.00 0.00 60 1018.9
20260906042147 75 159 3.5 7.0 0.00 0.00 0.00 59 1019.0
20260906041644 75 155 4.3 5.2 0.00 0.00 0.00 59 1018.9
20260906041144 75 136 0.9 7.0 0.00 0.00 0.00 59 1018.9
20260906040650 75 132 3.5 5.2 0.00 0.00 0.00 59 1018.7
20260906040150 75 152 3.5 6.1 0.00 0.00 0.00 58 1018.7
20260906035644 75 94 2.6 4.3 0.00 0.00 0.00 58 1018.7
20260906035144 75 150 4.3 5.2 0.00 0.00 0.00 58 1018.7
20260906034648 75 162 2.6 4.3 0.00 0.00 0.00 58 1018.7
20260906034147 75 170 1.7 6.1 0.00 0.00 0.00 58 1018.6
20260906033647 75 98 1.7 4.3 0.00 0.00 0.00 58 1018.5
20260906033144 76 128 3.5 5.2 0.00 0.00 0.00 57 1018.4
20260906032644 75 192 1.7 5.2 0.00 0.00 0.00 57 1018.4
20260906032144 75 146 2.6 5.2 0.00 0.00 0.00 57 1018.4
20260906031653 75 165 4.3 6.1 0.00 0.00 0.00 57 1018.5
20260906031144 76 160 2.6 5.2 0.00 0.00 0.00 56 1018.5
20260906030647 76 161 0.9 5.2 0.00 0.00 0.00 56 1018.5
20260906030144 76 234 0.9 7.0 0.00 0.00 0.00 56 1018.5
20260906025644 76 149 2.6 7.0 0.00 0.00 0.00 56 1018.5
20260906025144 76 131 1.7 6.1 0.00 0.00 0.00 56 1018.4
20260906024644 76 153 2.6 6.1 0.00 0.00 0.00 56 1018.5
20260906024144 76 167 1.7 7.0 0.00 0.00 0.00 56 1018.6
20260906023644 76 157 6.1 6.1 0.00 0.00 0.00 56 1018.6
20260906023144 76 131 2.6 7.0 0.00 0.00 0.00 56 1018.7
20260906022647 76 145 2.6 4.3 0.00 0.00 0.00 56 1018.7
20260906022144 76 161 2.6 6.1 0.00 0.00 0.00 56 1018.7
20260906021647 76 142 0.9 6.1 0.00 0.00 0.00 56 1018.7
20260906021147 76 175 0.9 3.5 0.00 0.00 0.00 57 1018.7
20260906020650 76 173 2.6 6.1 0.00 0.00 0.00 57 1018.7
20260906020145 76 146 0.9 5.2 0.00 0.00 0.00 58 1018.7
20260906015642 76 153 3.5 5.2 0.00 0.00 0.00 58 1018.7
20260906015142 76 136 4.3 7.0 0.00 0.00 0.00 58 1018.6
20260906014645 76 155 4.3 6.1 0.00 0.00 0.00 59 1018.7
20260906014142 76 167 0.0 3.5 0.00 0.00 0.00 59 1018.7
20260906013648 76 171 0.9 4.3 0.00 0.00 0.00 59 1018.6
20260906013142 76 173 2.6 4.3 0.00 0.00 0.00 60 1018.7
20260906012648 76 144 3.5 3.5 0.00 0.00 0.00 60 1018.6
20260906012142 76 148 0.9 5.2 0.00 0.00 0.00 61 1018.6
20260906011642 76 149 3.5 3.5 0.00 0.00 0.00 62 1018.6
20260906011142 76 151 0.9 3.5 0.00 0.00 0.00 62 1018.6
20260906010645 76 131 2.6 4.3 0.00 0.00 0.00 62 1018.6
20260906010142 76 167 2.6 4.3 0.00 0.00 0.00 62 1018.6
20260906005648 76 161 0.9 4.3 0.00 0.00 0.00 63 1018.6
20260906005146 77 169 3.5 6.1 0.00 0.00 0.00 62 1018.6
20260906004646 77 150 4.3 7.0 0.00 0.00 0.00 62 1018.6
20260906004148 77 139 0.9 4.3 0.00 0.00 0.00 63 1018.7
20260906003645 77 102 2.6 4.3 0.00 0.00 0.00 63 1018.7
20260906003149 77 142 1.7 5.2 0.00 0.00 0.00 64 1018.7
20260906002642 77 155 3.5 4.3 0.00 0.00 0.00 64 1018.8
20260906002151 77 184 3.5 6.1 0.00 0.00 0.00 64 1018.8
20260906001642 77 170 1.7 5.2 0.00 0.00 0.00 64 1018.8
20260906001145 77 191 5.2 6.1 0.00 0.00 0.00 64 1018.8
20260906000642 77 171 2.6 5.2 0.00 0.00 0.00 65 1018.8
20260906000148 77 105 4.3 6.1 0.00 0.00 0.00 66 1018.8
20260905235648 77 196 2.6 6.1 0.00 0.00 0.00 66 1019.0
20260905235142 77 160 1.7 5.2 0.00 0.00 0.00 66 1019.0
20260905234642 77 156 4.3 7.0 0.00 0.00 0.00 66 1019.1
20260905234143 77 194 2.6 6.1 0.00 0.00 0.00 67 1019.1
20260905233645 77 138 0.9 4.3 0.00 0.00 0.00 68 1019.1
20260905233148 77 121 1.7 4.3 0.00 0.00 0.00 69 1019.1
20260905232643 78 148 2.6 7.0 0.00 0.00 0.00 69 1019.2
20260905232146 78 148 2.6 7.0 0.00 0.00 0.00 70 1019.2
20260905231645 78 138 2.6 7.0 0.00 0.00 0.00 70 1019.1
20260905231143 78 155 0.9 7.0 0.00 0.00 0.00 71 1019.1
20260905230646 78 178 4.3 5.2 0.00 0.00 0.00 71 1019.2
20260905230146 78 150 1.7 6.1 0.00 0.00 0.00 71 1019.2
20260905225643 78 182 0.0 3.5 0.00 0.00 0.00 71 1019.2
20260905225143 78 186 1.7 5.2 0.00 0.00 0.00 71 1019.2
20260905224643 78 138 0.0 5.2 0.00 0.00 0.00 72 1019.1
20260905224143 78 186 3.5 6.1 0.00 0.00 0.00 72 1019.2
20260905223652 78 140 5.2 7.0 0.00 0.00 0.00 72 1019.2
20260905223143 78 125 1.7 5.2 0.00 0.00 0.00 72 1019.2
20260905222646 78 145 2.6 4.3 0.00 0.00 0.00 72 1019.3
20260905222146 78 187 0.9 4.3 0.00 0.00 0.00 72 1019.3
20260905221649 78 182 3.5 6.1 0.00 0.00 0.00 72 1019.2
20260905221143 79 138 2.6 4.3 0.00 0.00 0.00 72 1019.1
20260905220643 79 153 3.5 5.2 0.00 0.00 0.00 72 1019.2
20260905220143 79 158 2.6 4.3 0.00 0.00 0.00 72 1019.2
20260905215649 79 153 2.6 6.1 0.00 0.00 0.00 71 1019.2
20260905215143 79 138 3.5 4.3 0.00 0.00 0.00 71 1019.2
20260905214646 79 184 3.5 5.2 0.00 0.00 0.00 71 1019.2
20260905214143 79 137 0.9 5.2 0.00 0.00 0.00 71 1019.2
20260905213646 79 142 3.5 6.1 0.00 0.00 0.00 71 1019.3
20260905213143 79 173 0.9 5.2 0.00 0.00 0.00 72 1019.3
20260905212646 79 181 3.5 5.2 0.00 0.00 0.00 72 1019.2
20260905212143 79 162 0.0 6.1 0.00 0.00 0.00 72 1019.3
20260905211643 79 134 1.7 5.2 0.00 0.00 0.00 72 1019.2
20260905211146 79 132 1.7 5.2 0.00 0.00 0.00 72 1019.2
20260905210643 79 136 2.6 7.0 0.00 0.00 0.00 72 1019.3
20260905210143 79 166 3.5 6.1 0.00 0.00 0.00 71 1019.3
20260905205646 80 155 3.5 5.2 0.00 0.00 0.00 71 1019.3
20260905205143 80 149 0.9 4.3 0.00 0.00 0.00 71 1019.3
20260905204643 80 163 2.6 3.5 0.00 0.00 0.00 70 1019.3
20260905204146 80 163 0.9 4.3 0.00 0.00 0.00 70 1019.3
20260905203643 80 181 1.7 4.3 0.00 0.00 0.00 70 1019.2
20260905203146 80 109 0.0 5.2 0.00 0.00 0.00 70 1019.2
20260905202643 80 157 1.7 6.1 0.00 0.00 0.00 69 1019.2
20260905202146 80 161 3.5 5.2 0.00 0.00 0.00 69 1019.3
20260905201643 80 128 1.7 6.1 0.00 0.00 0.00 69 1019.4
20260905201149 80 142 0.9 6.1 0.00 0.00 0.00 69 1019.4
20260905200646 80 153 2.6 7.0 0.00 0.00 0.00 69 1019.3
20260905200146 80 170 0.9 4.3 0.00 0.00 0.00 68 1019.3
20260905195643 80 136 3.5 5.2 0.00 0.00 0.00 68 1019.4
20260905195152 80 153 3.5 5.2 0.00 0.00 0.00 68 1019.4
20260905194643 81 167 2.6 6.1 0.00 0.00 0.00 68 1019.3
20260905194149 81 154 0.9 5.2 0.00 0.00 0.00 67 1019.4
20260905193646 81 121 1.7 4.3 0.00 0.00 0.00 67 1019.4
20260905193146 81 159 1.7 5.2 0.00 0.00 0.00 67 1019.4
20260905192647 81 142 0.0 4.3 0.00 0.00 0.00 68 1019.3
20260905192146 81 130 0.9 2.6 0.00 0.00 0.00 68 1019.3
20260905191643 81 123 1.7 3.5 0.00 0.00 0.00 69 1019.2
20260905191143 81 151 1.7 5.2 0.00 0.00 0.00 69 1019.2
20260905190643 81 184 2.6 6.1 0.00 0.00 0.00 69 1019.1
20260905190146 82 165 2.6 4.3 0.00 0.00 0.00 69 1019.1
20260905185643 82 127 1.7 4.3 0.00 0.00 0.00 69 1019.0
20260905185152 82 146 0.0 3.5 0.00 0.00 0.00 69 1018.8
20260905184646 83 146 0.0 2.6 0.00 0.00 0.00 69 1018.8
20260905184146 83 138 0.9 4.3 0.00 0.00 0.00 68 1018.8
20260905183643 83 146 0.0 0.9 0.00 0.00 0.00 69 1018.7
20260905183143 84 146 0.9 3.5 0.00 0.00 0.00 68 1018.8
20260905182643 84 5 0.0 2.6 0.00 0.00 0.00 70 1018.7
20260905182146 84 350 0.0 2.6 0.00 0.00 0.00 70 1018.6
20260905181646 84 335 0.0 2.6 0.00 0.00 0.00 71 1018.6
20260905181143 84 335 1.7 2.6 0.00 0.00 0.00 71 1018.6
20260905180646 84 303 0.0 2.6 0.00 0.00 0.00 70 1018.5
20260905180149 84 342 1.7 3.5 0.00 0.00 0.00 70 1018.5
20260905175646 85 355 1.7 3.5 0.00 0.00 0.00 70 1018.4
20260905175144 85 275 0.0 2.6 0.00 0.00 0.00 69 1018.4
20260905174646 85 308 0.0 2.6 0.00 0.00 0.00 69 1018.4
20260905174149 85 296 1.7 2.6 0.00 0.00 0.00 69 1018.4
20260905173646 85 293 2.6 3.5 0.00 0.00 0.00 68 1018.4
20260905173146 85 281 3.5 4.3 0.00 0.00 0.00 68 1018.3
20260905172646 85 301 0.9 3.5 0.00 0.00 0.00 67 1018.3
20260905172146 85 292 1.7 4.3 0.00 0.00 0.00 67 1018.3
20260905171646 86 284 2.6 4.3 0.00 0.00 0.00 66 1018.3
20260905171143 86 294 2.6 4.3 0.00 0.00 0.00 65 1018.3
20260905170649 86 267 3.5 4.3 0.00 0.00 0.00 65 1018.3
20260905170143 87 312 1.7 5.2 0.00 0.00 0.00 64 1018.2
20260905165649 87 334 2.6 3.5 0.00 0.00 0.00 64 1018.2
20260905165143 87 268 2.6 4.3 0.00 0.00 0.00 63 1018.2
20260905164643 87 296 2.6 5.2 0.00 0.00 0.00 63 1018.2
20260905164143 87 301 1.7 5.2 0.00 0.00 0.00 63 1018.2
20260905163646 87 312 3.5 5.2 0.00 0.00 0.00 62 1018.2
20260905163143 88 289 1.7 5.2 0.00 0.00 0.00 61 1018.3
20260905162643 87 323 0.9 6.1 0.00 0.00 0.00 61 1018.3
20260905162143 87 337 2.6 5.2 0.00 0.00 0.00 63 1018.2
20260905161643 87 342 1.7 5.2 0.00 0.00 0.00 61 1018.3
20260905161143 87 305 0.9 7.0 0.00 0.00 0.00 62 1018.4
20260905160646 88 40 1.7 6.1 0.00 0.00 0.00 59 1018.4
20260905160146 88 342 0.9 6.1 0.00 0.00 0.00 60 1018.4
20260905155646 89 311 6.1 7.0 0.00 0.00 0.00 60 1018.3
20260905155146 88 347 0.9 5.2 0.00 0.00 0.00 62 1018.3
20260905154643 88 333 2.6 7.0 0.00 0.00 0.00 61 1018.3
20260905154143 89 314 3.5 7.8 0.00 0.00 0.00 61 1018.3
20260905153646 89 342 2.6 7.0 0.00 0.00 0.00 61 1018.3
20260905153149 89 287 5.2 6.1 0.00 0.00 0.00 61 1018.3
20260905152649 89 38 2.6 9.6 0.00 0.00 0.00 60 1018.3
20260905152143 89 334 3.5 9.6 0.00 0.00 0.00 59 1018.3
20260905151643 89 282 3.5 6.1 0.00 0.00 0.00 59 1018.2
20260905151143 90 275 5.2 7.8 0.00 0.00 0.00 58 1018.2
20260905150643 90 300 5.2 6.1 0.00 0.00 0.00 58 1018.2
20260905150143 90 308 4.3 7.8 0.00 0.00 0.00 55 1018.2
20260905145643 90 298 0.0 5.2 0.00 0.00 0.00 54 1018.2
20260905145143 90 276 4.3 6.1 0.00 0.00 0.00 51 1018.2
20260905144650 91 5 4.3 7.8 0.00 0.00 0.00 51 1018.2
20260905144146 91 339 2.6 6.1 0.00 0.00 0.00 54 1018.2
20260905143643 91 333 1.7 6.1 0.00 0.00 0.00 53 1018.2
20260905143143 91 355 3.5 4.3 0.00 0.00 0.00 49 1018.2
20260905142643 91 330 3.5 7.0 0.00 0.00 0.00 40 1018.3
20260905142149 91 292 1.7 7.0 0.00 0.00 0.00 46 1018.3
20260905141649 91 295 3.5 4.3 0.00 0.00 0.00 44 1018.2
20260905141143 91 326 0.9 5.2 0.00 0.00 0.00 43 1018.3
20260905140643 91 245 1.7 7.8 0.00 0.00 0.00 44 1018.3
20260905140143 91 323 2.6 5.2 0.00 0.00 0.00 45 1018.3
20260905135643 91 272 2.6 7.0 0.00 0.00 0.00 44 1018.3
20260905135149 91 16 1.7 5.2 0.00 0.00 0.00 46 1018.3
20260905134652 91 355 3.5 6.1 0.00 0.00 0.00 47 1018.3
20260905134146 91 264 2.6 6.1 0.00 0.00 0.00 50 1018.4
20260905133643 91 303 1.7 7.8 0.00 0.00 0.00 49 1018.4
20260905133143 91 348 5.2 5.2 0.00 0.00 0.00 51 1018.4
20260905132650 91 285 3.5 7.8 0.00 0.00 0.00 53 1018.5
20260905132143 91 250 0.9 7.0 0.00 0.00 0.00 52 1018.5
20260905131643 91 281 0.9 5.2 0.00 0.00 0.00 54 1018.6
20260905131143 91 292 3.5 7.0 0.00 0.00 0.00 55 1018.6
20260905130643 91 279 4.3 7.8 0.00 0.00 0.00 55 1018.6
20260905130146 91 290 6.1 6.1 0.00 0.00 0.00 55 1018.7
20260905125649 90 248 3.5 7.0 0.00 0.00 0.00 55 1018.7
20260905125149 91 296 5.2 7.0 0.00 0.00 0.00 54 1018.8
20260905124643 90 298 3.5 7.0 0.00 0.00 0.00 54 1018.8
20260905124146 90 281 3.5 5.2 0.00 0.00 0.00 55 1018.8
20260905123643 90 340 0.9 6.1 0.00 0.00 0.00 53 1018.8
20260905123149 90 345 4.3 5.2 0.00 0.00 0.00 55 1018.9
20260905122652 90 309 3.5 6.1 0.00 0.00 0.00 56 1018.8
20260905122149 89 24 0.9 8.7 0.00 0.00 0.00 57 1018.8
20260905121646 89 313 1.7 7.0 0.00 0.00 0.00 59 1018.9
20260905121143 90 320 4.3 6.1 0.00 0.00 0.00 57 1018.9
20260905120646 90 281 1.7 7.0 0.00 0.00 0.00 57 1019.0
20260905120143 90 285 4.3 6.1 0.00 0.00 0.00 58 1019.0
20260905115646 90 228 0.9 7.8 0.00 0.00 0.00 57 1019.1
20260905115146 90 336 4.3 6.1 0.00 0.00 0.00 56 1019.1
20260905114643 90 260 4.3 6.1 0.00 0.00 0.00 56 1019.1
20260905114143 90 320 1.7 5.2 0.00 0.00 0.00 56 1019.1
20260905113643 90 292 0.9 6.1 0.00 0.00 0.00 57 1019.1
20260905113152 90 314 2.6 8.7 0.00 0.00 0.00 57 1019.1
20260905112643 89 309 0.9 6.1 0.00 0.00 0.00 58 1019.1
20260905112149 89 14 4.3 6.1 0.00 0.00 0.00 57 1019.1
20260905111643 89 323 1.7 6.1 0.00 0.00 0.00 58 1019.2
20260905111143 90 276 5.2 7.0 0.00 0.00 0.00 59 1019.1
20260905110646 90 304 2.6 5.2 0.00 0.00 0.00 60 1019.1
20260905110143 90 281 1.7 7.0 0.00 0.00 0.00 57 1019.2
20260905105649 89 317 2.6 5.2 0.00 0.00 0.00 58 1019.1
20260905105149 89 284 5.2 5.2 0.00 0.00 0.00 59 1019.1
20260905104643 89 260 2.6 8.7 0.00 0.00 0.00 59 1019.0
20260905104143 89 319 4.3 8.7 0.00 0.00 0.00 55 1019.1
20260905103643 89 315 4.3 5.2 0.00 0.00 0.00 59 1019.0
20260905103143 89 5 4.3 7.0 0.00 0.00 0.00 59 1019.0
20260905102652 88 308 5.2 7.0 0.00 0.00 0.00 58 1019.1
20260905102143 88 290 4.3 7.8 0.00 0.00 0.00 57 1019.1
20260905101643 88 304 2.6 6.1 0.00 0.00 0.00 57 1019.1
20260905101146 88 274 3.5 7.0 0.00 0.00 0.00 56 1019.1
20260905100643 88 292 2.6 7.8 0.00 0.00 0.00 56 1019.1
20260905100143 88 283 3.5 8.7 0.00 0.00 0.00 55 1019.0
20260905095646 89 284 4.3 6.1 0.00 0.00 0.00 55 1019.0
20260905095146 89 332 1.7 7.8 0.00 0.00 0.00 53 1019.1
20260905094644 89 275 4.3 7.8 0.00 0.00 0.00 53 1019.0
20260905094146 89 267 6.1 7.0 0.00 0.00 0.00 52 1019.1
20260905093646 89 270 4.3 7.0 0.00 0.00 0.00 52 1019.1